Theta_e
351 348 347 345 337 336 333 331 327 329 332 330 330 329 330 331 332 333 335 338 341 342 342 341 340 341 340 340 337 336 338 338 340 339 338 340 341 341 340 339 339 339 339 339 338 337 337 336 334 334 335 335 334 333 335 335 332 329 329 330 330 331 332 331 331 331 330 330 331 332 334 338 339 339 339 339 339 338 338 338 338 338 338 339 338
350 347 347 343 338 336 333 331 327 332 333 330 329 328 330 331 333 333 335 337 339 341 342 342 340 340 339 338 335 335 339 340 340 339 339 340 339 338 337 337 338 337 337 338 337 335 335 334 334 335 334 334 333 333 335 334 332 332 332 331 329 329 333 332 331 331 330 331 333 333 335 338 338 338 339 339 338 338 338 338 338 338 338 338 337
349 348 346 343 339 336 333 330 329 334 332 330 328 328 330 330 332 333 336 336 338 339 339 339 338 339 337 336 336 338 341 339 339 340 341 341 339 335 335 338 340 340 338 337 335 333 334 335 334 334 334 335 335 334 335 333 333 334 334 334 330 326 329 332 331 331 331 331 333 334 336 337 338 339 338 339 339 338 338 338 338 338 338 338 337
350 349 345 345 341 335 333 328 330 332 330 329 328 329 329 329 331 331 334 335 337 337 337 337 335 337 337 337 338 340 337 337 339 341 342 341 340 335 336 340 341 341 340 338 336 334 335 337 336 336 336 335 336 335 334 334 334 335 336 336 334 328 325 328 330 330 331 331 332 333 334 335 337 339 339 339 338 338 338 338 338 337 337 337 337
350 348 346 346 341 335 332 327 328 329 328 329 328 330 329 329 330 330 331 333 336 336 336 337 337 337 338 339 339 336 333 336 339 341 341 341 340 337 338 340 341 341 340 339 337 336 337 338 338 339 337 336 337 336 334 335 334 336 337 336 337 333 326 325 327 328 330 331 331 333 334 335 336 336 338 339 339 338 338 338 338 337 337 337 337
350 347 346 346 339 335 330 327 327 327 328 329 329 329 329 329 329 330 331 333 335 336 337 338 339 339 339 339 337 334 333 336 339 340 341 340 339 338 339 338 338 339 339 337 337 337 338 338 339 339 338 338 338 337 336 336 336 336 337 337 337 336 331 325 325 326 328 331 332 332 333 334 335 334 335 337 338 337 338 337 337 336 336 336 335
349 347 347 344 339 333 329 326 326 327 328 330 330 329 329 328 329 331 333 335 336 337 338 339 339 338 339 337 336 336 337 339 339 340 340 340 338 337 337 336 337 338 338 336 337 338 339 338 339 339 338 338 338 337 337 337 337 337 336 337 336 337 335 327 324 325 326 330 331 331 331 331 334 335 334 335 337 336 336 336 336 335 334 334 333
348 347 346 343 338 333 328 325 325 327 329 330 330 330 328 326 327 331 335 337 338 339 338 338 338 339 339 338 338 339 340 340 340 340 340 340 338 337 338 337 338 339 337 336 337 339 339 339 339 339 339 339 338 338 338 337 337 336 336 336 336 337 337 329 323 323 325 328 328 329 330 329 331 333 334 334 335 336 335 334 334 334 333 333 332
348 347 345 342 338 333 327 325 325 327 329 330 330 331 329 326 325 331 337 337 337 339 339 338 339 340 340 339 340 340 341 341 340 340 340 339 338 338 338 337 338 338 337 336 338 339 339 339 339 339 338 339 338 338 336 336 335 336 335 335 335 336 336 331 325 323 324 326 328 329 330 330 330 331 332 333 334 334 333 332 332 332 333 333 331
348 346 344 341 338 334 327 323 324 326 329 329 331 333 331 327 326 329 335 337 337 338 338 339 339 339 340 340 341 341 341 341 340 340 339 340 340 339 338 337 337 336 335 336 338 339 339 339 339 339 338 338 336 335 334 334 334 335 335 336 336 335 335 331 327 325 324 325 329 329 329 330 330 330 331 333 333 332 332 332 332 332 332 331 331
348 347 343 342 339 333 327 323 323 326 328 329 332 335 334 330 329 330 335 337 337 336 337 338 338 339 340 339 339 339 339 339 339 338 339 340 340 339 338 338 337 336 335 336 337 338 339 339 339 338 336 335 334 334 334 334 334 335 335 335 335 335 333 330 328 326 323 323 327 328 329 330 330 330 331 332 332 331 332 332 332 331 330 330 329
347 346 343 343 340 333 328 323 322 325 328 329 333 336 336 333 331 332 335 338 336 335 335 337 336 336 337 336 335 336 336 336 336 336 338 340 340 339 338 339 338 337 336 335 336 337 339 338 337 334 333 333 333 333 333 334 335 335 335 334 334 333 331 329 327 325 322 321 325 327 329 330 329 330 331 331 330 330 330 331 331 330 329 329 329
346 345 344 344 339 333 328 324 322 325 328 330 334 338 338 336 335 333 335 338 336 334 335 336 335 335 335 334 335 334 334 334 334 335 336 339 339 338 338 338 338 338 336 335 333 334 336 335 333 331 332 332 332 333 333 334 335 335 335 334 333 332 330 328 326 323 321 321 324 327 329 330 330 330 330 330 329 329 329 329 330 329 328 329 328
346 345 345 344 339 334 329 325 322 325 329 332 336 339 340 340 339 338 338 339 337 335 334 335 336 337 337 336 336 335 335 336 336 337 336 337 337 337 336 337 338 337 335 334 332 331 332 331 331 331 332 332 332 333 332 334 335 336 335 334 333 332 329 327 325 323 322 323 323 325 329 330 330 330 330 330 329 329 329 329 328 328 328 327 327
345 345 345 343 341 337 332 326 323 327 332 334 337 338 341 341 341 341 340 339 338 336 334 335 336 339 338 337 336 336 337 338 338 338 337 337 336 335 336 336 336 336 335 335 333 329 328 330 331 331 331 331 331 332 332 333 335 336 335 334 333 332 330 327 326 324 324 324 323 324 328 329 330 330 330 330 329 329 329 328 328 328 328 327 326
345 345 345 343 342 339 336 332 326 329 333 334 335 338 341 341 341 340 339 339 338 336 335 335 335 337 337 337 336 337 339 338 338 337 336 336 335 334 334 335 336 336 336 335 334 331 328 329 330 330 330 330 330 331 332 333 335 336 335 334 334 333 331 328 327 326 325 325 323 324 327 330 330 330 330 330 329 329 328 328 327 327 327 327 327
345 345 344 343 342 340 338 336 333 332 333 335 336 340 342 341 341 340 339 338 336 336 336 334 333 334 336 336 337 338 338 337 336 335 336 335 335 334 333 335 337 337 336 334 334 333 329 328 330 329 329 329 329 330 331 332 335 335 335 335 334 334 331 329 328 328 326 325 325 325 325 325 326 328 329 329 329 328 328 328 328 327 327 326 326
345 344 343 342 341 340 337 337 338 336 336 338 338 341 343 342 342 340 338 336 335 335 334 333 332 334 335 335 337 337 336 336 336 336 336 337 337 336 334 336 338 337 335 333 334 333 330 328 329 330 329 329 329 330 331 332 334 335 335 335 334 334 332 329 329 329 327 327 326 327 325 321 324 329 329 329 329 328 328 328 327 326 326 326 326
345 344 343 342 340 340 337 339 340 337 338 339 339 340 342 342 342 340 338 336 334 332 331 332 333 335 335 335 336 336 336 337 337 338 338 338 338 335 334 335 336 336 335 334 334 334 331 329 330 330 329 329 329 330 331 332 334 335 335 335 334 334 333 330 330 329 328 327 326 326 323 320 324 328 329 328 328 328 327 326 327 326 325 325 326
344 344 343 341 340 339 338 340 340 337 339 339 339 340 341 342 342 340 338 335 332 330 332 335 336 337 336 336 336 337 338 338 338 338 339 337 334 333 332 334 334 334 335 335 334 334 333 331 330 330 329 328 329 329 330 332 333 334 335 335 335 334 333 331 330 330 328 327 326 325 322 323 328 329 329 328 328 327 325 324 326 326 326 326 326
344 344 343 342 341 340 339 340 339 338 339 339 340 341 341 342 342 340 336 333 331 332 335 337 337 337 337 336 336 337 338 338 337 336 335 332 331 331 331 333 334 333 334 334 333 334 334 332 330 329 328 328 329 329 330 331 333 334 335 335 335 334 333 331 331 329 328 327 327 327 325 326 329 329 329 328 329 327 325 325 324 326 326 324 325
344 343 343 343 342 340 340 339 339 339 339 339 340 340 341 342 341 339 335 334 334 335 337 338 338 337 336 334 333 335 336 335 333 332 331 330 331 332 332 332 332 332 331 332 332 332 332 330 329 328 327 328 328 329 330 331 332 333 334 336 335 334 334 332 331 329 328 328 328 329 328 326 327 329 329 327 327 327 327 327 325 326 323 318 322
343 344 344 344 342 341 341 340 340 340 339 340 340 340 341 342 340 337 335 335 336 337 337 338 337 336 335 332 332 333 333 333 332 331 329 329 330 331 331 331 331 331 331 332 331 330 329 329 328 327 327 327 328 329 329 330 332 332 334 336 335 334 334 331 330 329 328 328 330 331 329 328 328 330 328 325 325 327 328 326 324 325 322 318 320
344 345 345 344 343 342 341 340 341 341 340 339 339 340 341 341 337 333 334 336 337 338 337 337 337 336 335 333 333 333 334 334 332 330 328 328 329 330 330 331 331 331 331 330 328 327 327 327 327 327 327 328 328 328 329 330 331 331 333 335 335 334 333 332 330 329 328 329 331 332 331 329 330 331 329 327 326 327 326 322 322 324 324 321 318
344 345 345 344 342 341 341 340 340 340 339 339 339 339 341 341 335 331 332 335 337 338 337 336 336 335 335 334 334 334 334 333 329 326 327 327 327 329 330 329 329 329 329 327 326 325 325 326 326 327 328 329 329 329 328 329 330 330 331 334 334 334 333 332 330 329 329 330 331 332 331 331 332 331 331 330 327 327 321 316 320 322 322 322 320
345 345 345 344 342 340 341 340 340 339 339 339 338 339 341 340 335 331 331 334 337 337 337 336 335 335 334 334 333 334 334 331 326 323 324 326 326 327 328 327 327 327 328 327 327 327 327 327 328 329 330 330 330 329 329 328 329 329 330 333 333 334 334 332 330 329 329 330 331 331 330 331 333 332 333 331 329 328 321 317 322 324 322 323 323
344 344 344 343 342 341 341 341 339 339 338 338 338 339 341 340 336 331 330 335 337 336 337 336 334 334 334 333 332 333 333 329 324 323 323 324 324 325 326 328 328 327 329 329 329 330 329 329 329 330 330 330 330 330 330 328 328 329 331 332 333 334 334 332 331 329 329 330 331 330 329 332 333 332 332 331 330 327 321 317 321 324 324 324 323
342 344 344 343 342 341 341 341 340 339 338 337 338 340 341 340 336 331 332 335 335 335 337 336 334 334 334 333 330 330 331 327 325 324 323 323 324 325 328 330 331 330 331 331 330 331 330 329 329 330 330 331 330 330 330 329 329 329 331 332 333 333 333 333 331 329 329 329 330 329 330 332 333 332 332 332 331 327 322 317 317 321 322 322 322
340 342 343 343 342 341 341 341 340 339 338 337 338 340 340 338 334 332 335 335 333 334 336 337 335 334 334 333 329 327 330 328 326 326 324 324 325 326 329 331 332 331 332 331 331 331 330 329 330 329 330 331 330 330 329 329 329 329 330 332 333 333 333 333 331 329 329 329 330 329 330 332 333 332 332 331 331 329 325 322 321 320 318 319 322
339 340 341 342 342 341 340 340 339 339 338 337 338 340 339 336 334 334 334 332 332 333 335 337 336 335 334 332 328 325 327 328 327 327 327 327 329 330 332 332 332 331 331 331 331 331 330 330 329 329 330 330 331 330 329 329 329 329 330 331 332 332 333 332 331 330 329 330 330 329 330 333 333 333 332 331 331 330 328 326 325 321 316 317 321
338 338 339 340 341 341 339 338 337 337 337 337 338 339 337 335 334 332 330 330 332 334 335 336 336 336 334 332 328 323 327 330 328 328 329 330 332 333 333 332 332 332 332 332 332 331 330 329 329 329 330 331 331 330 330 329 329 329 329 330 331 332 332 332 331 330 329 330 330 329 331 333 333 333 332 330 330 330 330 328 326 323 320 320 320
337 337 337 338 339 340 340 338 336 337 338 339 339 338 336 335 333 330 329 331 333 334 335 335 335 335 333 330 327 324 328 332 329 329 330 331 333 332 332 332 332 333 333 333 333 332 330 329 330 331 331 331 331 331 330 329 328 328 328 330 331 332 332 332 331 330 330 330 330 330 330 332 333 333 331 330 329 328 329 329 327 326 325 323 322
337 337 338 338 339 340 339 338 337 338 339 339 339 336 335 333 330 329 330 332 333 334 335 334 334 334 331 328 325 325 331 334 332 330 332 333 333 333 331 332 333 333 333 333 333 332 331 330 331 332 332 331 331 331 329 329 328 328 328 329 331 332 332 331 330 330 330 331 331 330 330 332 332 332 331 330 329 328 329 329 328 328 328 326 325
337 338 339 338 339 340 339 338 338 338 339 338 337 334 332 331 329 329 331 332 333 334 335 333 333 332 330 328 326 328 332 334 333 332 333 333 334 334 333 333 333 333 333 333 333 333 332 331 331 332 332 331 330 330 329 328 328 327 328 329 331 332 332 331 330 330 330 331 332 331 330 331 331 331 331 331 330 328 328 328 329 329 329 328 327
337 338 338 338 339 339 339 338 338 338 338 337 335 333 332 330 329 330 331 332 332 334 334 333 332 331 329 329 330 331 334 334 334 334 334 334 334 334 334 334 333 333 333 333 333 332 332 331 331 332 331 331 330 329 329 328 327 327 328 330 331 332 332 331 330 330 331 332 332 331 330 331 331 331 331 331 330 327 326 327 328 328 328 328 327
336 337 337 338 338 338 338 337 337 336 336 335 333 332 331 330 329 329 330 331 332 333 333 333 333 331 330 330 332 334 335 335 334 334 335 335 334 335 334 334 333 333 332 332 333 332 332 331 331 331 331 330 330 329 328 327 327 327 328 329 331 332 332 332 331 331 332 333 332 331 331 331 331 331 330 331 330 328 327 326 327 328 328 328 327
335 336 337 338 338 338 337 336 335 335 334 334 332 332 331 331 330 330 331 332 332 334 334 333 332 331 330 331 332 333 334 334 334 334 335 335 335 334 333 333 333 332 332 332 332 331 331 331 330 330 330 330 329 329 328 328 328 328 328 328 329 330 331 331 331 332 332 332 331 331 332 332 331 331 330 330 330 329 328 327 327 327 328 328 327
334 335 336 338 338 338 337 335 335 334 334 333 333 332 331 331 332 332 333 332 333 334 334 333 331 330 331 332 332 332 332 334 334 334 334 335 334 333 333 333 332 332 331 331 331 331 331 331 331 330 329 329 329 329 329 328 328 328 329 329 329 329 329 329 330 331 332 332 332 332 332 332 331 331 330 330 329 329 329 328 327 327 328 328 327
333 334 336 338 338 337 337 336 335 334 334 334 333 332 332 332 332 333 333 332 332 333 332 330 329 331 332 331 331 332 333 334 334 333 333 333 333 333 333 332 331 331 331 330 330 330 330 331 331 330 329 329 330 329 329 328 328 328 328 328 329 329 329 329 328 330 331 332 332 331 331 331 331 330 330 330 329 329 329 329 328 328 328 328 327
333 333 336 337 337 337 337 336 336 335 334 334 333 332 332 332 332 333 333 332 332 332 331 330 330 333 331 328 330 332 333 333 333 332 332 332 333 333 332 332 331 331 331 330 330 329 330 331 331 331 329 329 330 329 329 328 328 327 327 327 328 328 329 329 329 329 330 330 331 331 331 331 331 330 330 330 329 329 329 329 329 328 328 328 328
333 333 335 337 337 337 337 336 335 335 334 333 333 332 332 332 332 332 332 332 333 333 332 332 332 332 330 328 331 333 332 332 332 332 332 332 333 332 332 331 331 331 331 330 330 330 330 332 332 330 329 329 329 329 329 329 328 327 327 327 327 327 328 328 328 329 329 329 329 329 330 329 330 330 330 330 329 328 329 329 329 329 328 328 327
333 333 335 337 337 337 336 336 335 335 335 333 333 332 332 332 332 332 332 331 332 333 332 332 332 331 331 331 332 333 332 332 332 332 332 332 332 332 331 331 331 331 331 331 331 331 331 332 332 330 328 329 329 329 329 329 328 328 327 327 326 327 327 327 328 328 328 328 328 329 329 328 328 328 329 330 329 328 328 328 329 329 328 327 326
333 334 335 336 337 337 336 335 335 335 335 333 333 332 331 332 332 333 332 332 332 332 332 332 332 332 333 333 332 332 332 332 332 332 332 332 331 331 331 331 332 331 331 331 331 331 331 332 331 330 328 329 329 329 329 329 328 327 327 327 327 327 327 327 327 328 328 328 328 328 329 329 328 327 328 328 329 329 328 328 328 329 328 327 327
333 334 335 336 336 337 336 335 335 335 334 334 333 332 332 332 333 332 332 332 332 332 332 333 333 333 333 332 332 332 332 332 332 332 332 332 331 331 331 331 332 331 331 331 331 331 331 331 331 330 329 329 329 330 330 328 328 327 326 326 324 325 328 327 325 326 328 328 328 328 329 329 329 328 328 327 327 328 328 328 327 328 328 328 328
333 334 335 336 336 336 336 336 335 334 334 334 333 332 332 332 332 332 332 332 332 332 333 333 333 333 332 332 332 332 332 332 332 332 332 332 332 331 331 331 331 331 331 331 331 331 331 331 331 330 329 329 329 329 330 329 328 328 326 325 326 327 327 326 325 326 326 327 328 328 328 328 327 327 327 326 326 326 327 327 327 327 327 327 327
334 335 336 336 336 336 336 335 334 334 334 333 334 333 332 332 332 331 331 331 332 332 333 333 333 333 332 332 332 332 332 332 332 332 332 331 331 330 331 331 331 331 330 331 331 331 331 330 330 330 330 329 329 329 330 329 328 328 326 326 328 328 325 325 326 326 326 326 327 328 327 327 326 327 327 327 327 326 326 326 326 326 326 325 325
333 335 337 336 336 336 335 335 334 333 334 334 334 333 332 332 332 331 331 331 332 333 333 333 332 332 332 333 333 332 332 331 331 331 331 330 329 328 329 329 329 329 329 330 330 330 331 330 330 331 331 330 329 329 329 329 328 328 327 327 327 327 325 325 326 326 326 326 326 327 327 327 327 327 326 326 326 325 326 325 325 325 326 325 325
333 334 337 337 335 335 335 334 334 333 334 334 334 333 332 332 331 331 331 331 332 333 333 333 333 333 333 333 332 331 330 329 329 329 328 327 327 327 327 327 327 326 327 328 329 329 329 330 330 330 331 330 330 329 329 330 329 328 328 328 328 327 325 324 325 325 326 326 325 325 325 326 326 326 325 325 324 325 325 325 325 325 325 325 325
333 334 336 336 334 335 334 333 334 334 333 333 333 332 331 331 331 331 331 332 332 333 333 332 333 333 332 331 330 329 328 327 327 326 326 326 325 325 326 326 325 325 326 326 327 328 328 328 329 329 330 330 330 330 329 329 329 328 328 328 327 325 324 324 324 324 325 325 326 325 324 324 324 323 324 325 325 325 325 325 325 324 324 325 324
334 335 336 336 334 335 335 333 334 334 333 334 333 330 331 331 331 331 332 332 332 332 332 332 332 332 331 330 329 328 327 326 326 326 326 326 325 325 325 325 325 325 326 326 326 327 327 327 327 328 328 329 329 329 329 329 329 329 329 328 326 324 324 323 323 324 324 324 325 324 324 323 322 321 322 323 324 325 324 324 324 323 323 322 321
335 336 336 335 335 334 334 334 334 334 334 334 333 331 330 330 330 331 331 331 331 331 331 330 330 330 329 328 328 327 327 326 326 326 326 325 325 326 325 325 325 326 326 326 326 326 327 327 327 327 327 327 328 328 329 329 329 329 329 327 326 325 324 323 322 323 324 323 324 323 322 321 320 318 320 322 323 324 324 323 323 321 320 319 317
Wind_Speed
26 25 23 23 25 25 24 23 23 24 26 26 26 25 26 26 26 26 27 27 28 29 29 30 30 29 29 28 27 25 24 24 23 22 22 23 23 22 21 21 20 20 20 19 19 19 19 20 21 23 23 22 23 25 24 22 21 21 21 21 20 19 18 19 19 20 21 21 18 15 16 15 16 19 20 21 21 21 21 21 22 22 22 21 21
28 27 25 24 26 26 24 23 23 24 25 25 26 24 25 25 25 26 27 27 28 29 29 30 30 30 28 27 26 25 23 23 23 23 23 22 22 21 21 21 20 20 20 19 19 19 20 22 23 23 23 23 23 24 24 21 21 21 22 22 21 19 18 18 19 20 21 20 17 15 16 15 17 19 20 22 22 22 22 22 22 22 22 21 21
29 28 26 26 27 26 25 24 23 24 25 25 25 24 23 23 24 25 26 27 28 29 29 30 30 28 26 26 24 24 23 23 25 25 24 22 21 21 21 20 19 19 19 19 19 20 22 22 23 23 23 22 22 22 23 21 21 20 20 21 21 19 18 17 18 19 19 18 18 17 17 16 17 19 20 22 22 22 22 22 22 21 21 21 20
29 28 26 26 27 27 26 24 24 25 26 25 24 23 21 22 22 23 25 26 27 27 27 27 26 25 23 24 24 24 25 25 26 24 24 22 21 20 21 20 19 19 19 19 20 22 23 22 22 22 21 21 20 21 21 20 19 19 19 20 20 20 18 19 20 19 18 18 18 17 17 16 16 17 19 20 21 21 21 21 21 21 20 20 20
29 28 27 26 27 28 26 25 25 26 26 25 23 22 21 21 21 22 23 25 26 26 25 24 23 23 22 23 23 26 27 27 25 24 24 22 20 20 20 20 19 19 19 20 21 22 22 21 21 20 20 20 20 20 20 18 17 17 17 17 17 17 18 18 19 18 17 18 19 17 17 16 14 14 16 17 18 19 19 19 19 19 19 19 19
29 28 28 26 28 28 26 26 25 26 26 24 23 21 21 20 20 21 22 23 24 24 24 22 22 22 23 23 24 26 26 25 24 23 24 22 20 19 20 19 19 19 19 19 21 22 21 21 20 20 20 19 18 18 17 16 15 15 14 14 15 14 15 16 17 17 18 20 19 18 16 16 15 13 13 15 16 16 17 17 17 17 17 17 18
28 28 27 27 29 28 27 26 26 27 26 24 22 21 20 20 20 21 22 23 23 23 22 23 23 22 23 24 24 24 23 23 22 22 22 21 20 19 19 18 19 19 19 19 21 21 20 20 20 20 19 18 18 17 16 14 13 14 13 13 13 12 12 14 15 16 19 20 18 18 17 16 16 13 12 14 14 14 14 15 15 15 15 16 16
28 28 27 29 30 28 27 26 26 26 25 24 22 21 21 20 21 21 21 22 23 23 22 23 23 22 22 23 22 21 21 22 22 21 21 20 19 18 18 18 18 18 18 19 20 20 19 19 19 19 19 18 17 16 14 13 13 12 11 12 13 11 11 13 15 16 18 18 18 18 16 14 13 12 11 12 12 12 13 13 13 13 13 14 14
27 27 27 30 29 28 27 26 26 26 25 24 23 22 21 21 21 22 22 22 23 24 23 23 22 22 22 22 21 21 22 22 22 21 20 19 19 19 18 17 17 16 17 18 18 18 18 18 18 18 18 18 17 15 14 12 11 10 10 12 12 11 10 12 14 15 16 16 17 16 15 13 12 10 10 11 10 10 12 12 12 12 12 12 13
25 26 28 30 29 28 27 26 26 25 25 23 23 22 22 22 21 22 23 23 23 24 24 23 22 21 20 21 22 22 23 22 21 21 20 19 19 19 18 17 16 15 17 18 17 17 17 17 17 17 17 17 16 15 13 11 9 8 9 11 12 11 10 12 13 14 15 15 15 16 15 14 12 12 11 11 11 11 12 12 12 11 11 11 12
24 26 29 30 29 28 27 26 25 25 24 23 23 23 22 22 22 22 22 22 22 23 24 22 21 21 19 19 20 20 20 20 19 19 19 19 20 19 17 16 15 15 17 17 17 17 16 16 16 16 16 16 15 14 12 10 8 9 10 12 14 13 12 12 12 13 14 15 16 16 15 13 12 13 12 10 12 12 12 11 11 11 10 11 11
24 27 29 29 28 27 27 26 25 24 24 24 24 23 23 22 22 22 22 21 21 22 22 20 20 20 19 18 18 17 17 17 17 17 17 19 18 17 17 16 16 15 16 16 17 17 16 16 15 15 16 15 14 13 11 10 9 9 11 13 14 14 13 12 12 13 14 15 16 16 15 13 12 12 11 11 12 13 12 11 10 10 10 11 11
26 27 28 28 27 28 27 26 25 24 24 24 23 23 22 22 22 22 21 19 19 20 20 19 18 18 18 18 17 16 16 16 16 16 16 17 16 15 15 16 16 15 16 16 16 17 16 16 15 15 15 14 13 12 11 10 9 10 11 13 14 14 13 12 13 13 14 15 16 17 16 14 13 11 11 11 12 13 13 11 11 11 11 11 10
27 27 29 28 27 27 26 25 25 25 25 24 23 22 21 21 21 20 20 19 18 18 19 18 17 17 18 17 17 16 16 16 16 16 15 15 14 14 14 15 15 14 14 15 15 16 16 16 16 15 14 13 12 11 11 11 10 10 12 12 13 13 12 12 13 14 15 15 16 16 16 14 12 11 11 12 13 13 12 12 13 13 12 12 12
27 28 29 28 27 26 25 25 25 25 24 23 22 21 21 21 20 19 19 18 17 17 18 18 17 16 17 17 16 16 16 15 15 14 14 13 14 15 15 14 14 13 13 13 13 16 17 17 16 15 13 12 11 11 11 11 11 10 11 12 12 12 11 12 13 14 14 14 15 15 15 15 13 11 11 12 13 13 12 12 13 13 13 14 14
28 28 28 27 26 25 24 24 24 24 24 23 22 21 21 20 19 18 18 17 16 17 17 17 16 15 15 15 15 15 15 15 14 13 12 12 14 15 15 14 13 13 13 11 11 14 17 17 16 14 13 11 11 11 11 11 12 11 11 11 11 11 10 11 13 13 13 13 14 15 15 15 13 12 11 12 13 13 12 12 13 13 13 13 14
27 27 28 27 26 25 23 23 22 23 23 21 21 21 20 19 18 16 16 16 16 17 17 16 16 15 15 15 15 14 14 14 13 12 12 12 14 14 15 14 13 13 12 10 9 11 15 17 15 14 12 11 11 11 12 12 12 12 12 11 11 10 10 10 12 12 13 12 13 13 14 14 13 12 12 12 12 12 13 12 12 12 12 12 13
26 26 26 26 25 24 24 22 21 22 22 20 20 20 20 19 17 15 15 15 16 17 17 16 16 16 15 15 15 14 14 13 13 13 13 13 14 14 14 13 12 11 11 11 10 10 13 15 14 12 11 11 11 12 12 12 12 12 12 12 11 10 9 9 10 11 11 11 11 11 11 11 12 13 12 12 12 13 12 12 11 11 12 12 13
25 24 24 25 25 24 23 22 20 21 21 20 20 20 19 17 16 15 15 15 16 16 17 17 16 15 14 15 14 14 13 13 13 13 13 13 13 12 12 12 11 10 10 11 10 10 12 14 13 11 10 10 11 12 12 13 12 11 11 12 12 11 9 8 9 10 10 10 10 10 9 10 12 13 12 11 12 12 12 12 11 11 12 13 13
24 23 23 24 25 24 23 21 20 21 21 21 21 20 18 17 16 14 14 15 16 17 18 17 16 15 15 15 14 14 14 13 13 12 12 12 11 11 11 11 10 9 9 9 10 10 11 12 12 10 9 10 10 11 12 13 12 11 10 11 12 12 10 9 8 9 9 10 10 10 10 10 12 12 11 11 12 11 11 11 12 12 12 13 13
23 22 23 23 24 24 24 22 21 21 22 23 22 20 18 17 15 14 14 16 17 18 18 17 17 16 15 15 14 15 15 14 14 12 11 10 10 11 11 10 9 9 8 8 9 10 10 10 10 10 9 9 10 10 12 13 12 11 10 11 13 12 11 9 8 8 9 9 10 10 10 10 11 11 11 10 11 10 10 10 11 12 12 12 12
23 23 23 24 25 24 24 24 22 22 23 24 23 21 19 17 16 15 16 17 18 18 18 17 18 17 16 15 15 15 16 15 14 13 11 11 11 11 11 10 9 9 8 8 8 9 10 9 9 9 9 8 9 10 12 13 12 11 11 12 13 13 12 10 8 8 8 9 9 9 8 8 10 11 10 9 10 10 10 9 9 10 10 11 12
24 23 23 23 24 24 24 24 24 23 24 25 24 22 20 18 17 16 18 18 19 18 18 18 17 17 16 15 15 15 15 15 13 12 11 12 12 11 11 11 11 11 10 9 8 8 9 9 9 8 8 7 7 9 11 13 12 11 11 13 14 13 12 10 8 8 8 8 9 8 7 8 10 10 9 7 8 9 9 8 8 8 9 10 12
24 23 22 23 24 24 24 24 25 26 25 26 25 23 21 19 18 18 20 20 19 18 17 17 17 17 17 16 15 15 15 14 12 12 13 15 15 13 12 12 12 11 9 8 8 9 9 9 9 8 7 6 6 8 10 12 13 11 12 13 14 13 12 10 8 8 8 8 9 8 6 9 10 9 7 6 7 9 7 7 7 8 8 9 11
20 20 21 23 23 25 25 25 26 27 27 27 26 24 22 21 19 19 20 21 19 18 17 17 17 17 17 16 15 15 15 14 13 13 15 16 16 14 13 13 12 11 8 9 10 10 9 9 9 9 7 6 5 6 9 10 12 12 11 13 13 12 12 10 9 8 8 8 9 8 6 8 8 7 6 5 6 7 5 5 7 7 8 8 10
17 19 22 24 25 25 26 27 27 27 28 28 27 25 23 22 20 19 20 20 19 18 18 18 18 17 17 17 16 16 15 14 14 14 15 15 16 14 12 12 12 12 10 9 11 10 9 9 9 9 8 8 7 7 8 9 12 12 11 11 12 12 12 10 9 9 9 9 9 8 7 8 7 6 5 5 6 5 4 5 7 7 8 8 9
19 20 23 25 26 26 25 26 27 27 27 27 26 25 24 23 21 20 19 20 19 18 19 19 18 18 18 17 16 16 15 15 14 14 14 14 15 14 12 12 12 12 10 9 10 9 9 10 9 8 8 8 8 8 9 9 11 12 10 10 12 13 12 11 10 9 9 9 9 7 7 10 7 5 5 5 6 5 5 5 6 7 8 8 8
22 22 24 25 25 26 24 25 26 26 26 26 25 25 24 22 21 21 19 18 17 18 19 19 19 18 18 17 16 16 15 15 14 15 14 13 13 13 12 11 11 10 9 9 8 6 8 9 8 8 7 7 7 8 9 10 10 10 9 10 12 13 13 12 11 10 10 9 9 8 8 10 8 4 6 5 6 7 7 7 7 7 7 7 8
23 23 24 25 26 27 26 25 25 25 25 25 25 24 23 22 22 21 19 17 16 16 18 20 20 19 18 16 15 15 15 14 15 15 14 13 13 12 12 10 10 9 8 8 6 4 7 9 7 6 6 6 6 7 7 8 9 9 9 10 12 13 13 13 12 11 11 10 10 9 9 10 7 5 6 5 5 7 8 8 8 7 7 7 8
23 25 26 28 28 28 29 28 27 26 25 24 24 23 22 22 22 21 18 16 15 15 18 20 20 19 18 16 14 14 14 13 14 15 14 13 13 12 11 9 9 8 7 5 4 4 6 8 7 6 6 6 6 6 6 7 8 8 8 10 11 11 13 13 12 12 12 11 10 10 10 10 8 6 6 5 5 5 6 8 9 8 7 8 8
25 26 30 33 31 30 30 30 28 26 25 24 24 23 22 22 21 20 17 15 14 15 18 19 20 19 18 16 14 13 13 12 13 13 14 12 12 11 9 8 7 6 5 3 3 4 6 7 7 7 6 6 6 6 6 6 6 7 7 9 10 10 12 12 12 12 12 11 11 11 11 10 8 7 6 5 5 4 3 6 9 8 8 9 8
35 34 38 38 33 30 29 28 26 25 26 25 25 23 23 22 20 18 15 14 14 15 18 18 19 19 17 15 13 13 12 11 11 11 11 11 10 9 8 7 5 4 3 3 3 4 6 7 7 8 7 6 7 7 7 6 6 7 7 8 9 10 11 12 13 13 13 12 12 11 12 11 8 7 5 4 6 5 3 4 7 8 9 9 9
35 33 36 34 29 27 27 26 25 24 25 25 24 23 23 21 19 17 14 14 14 14 18 18 19 18 15 14 13 12 12 10 9 9 9 9 7 6 6 6 4 3 2 3 4 4 5 6 7 8 7 7 7 7 7 7 7 8 8 8 9 10 12 14 14 15 14 13 13 11 12 11 9 7 6 3 5 5 3 3 6 7 8 8 8
18 17 22 25 24 25 26 26 25 24 24 23 22 22 21 20 18 16 13 13 13 14 18 18 18 17 14 13 13 12 11 9 8 8 7 6 5 4 4 4 3 3 3 3 4 4 4 5 7 8 8 8 7 8 8 8 9 8 8 8 9 11 13 15 15 15 14 14 13 11 12 13 11 9 8 5 4 5 3 2 4 5 6 7 7
13 14 18 20 21 24 26 25 24 24 23 22 21 21 20 18 17 15 13 12 13 14 18 18 17 16 14 13 12 11 10 9 7 6 6 5 4 3 3 3 3 3 3 4 4 5 5 6 7 9 9 8 8 9 8 8 8 8 8 8 8 9 11 14 15 16 15 14 13 11 12 14 13 9 7 6 4 5 5 3 3 4 5 6 5
14 17 16 17 19 22 24 23 22 22 23 21 20 20 18 17 16 14 12 12 13 15 17 18 17 16 14 13 12 11 10 8 7 6 5 5 4 3 2 3 3 4 4 5 6 6 7 7 8 8 9 9 9 9 8 8 8 8 7 7 7 8 9 11 14 15 14 13 13 13 12 12 12 10 7 7 5 6 6 5 4 3 6 6 4
13 16 17 17 19 21 22 21 20 22 21 20 19 18 16 14 13 12 12 12 13 16 18 18 17 16 14 12 11 10 9 8 6 5 5 4 4 3 3 3 4 5 6 7 8 7 8 8 8 8 8 10 10 10 9 8 9 8 7 6 5 6 7 8 10 12 13 14 14 14 12 10 11 10 8 8 7 7 6 7 6 3 5 4 2
11 15 18 18 20 21 20 19 20 21 20 19 18 16 14 12 11 11 12 13 15 17 18 18 17 15 13 11 10 9 8 7 6 5 5 4 4 4 4 4 5 6 7 8 8 8 8 8 9 9 8 10 11 11 10 10 10 10 9 8 6 5 4 5 7 9 11 13 12 12 11 11 11 10 9 10 9 8 7 7 7 4 4 3 2
11 15 18 18 21 21 19 18 19 20 19 18 16 14 13 12 12 12 13 14 16 17 17 16 15 13 11 10 9 8 7 6 5 5 5 5 5 5 5 6 7 8 8 8 9 10 9 9 9 9 9 10 11 12 12 11 11 11 10 10 8 8 7 5 5 7 9 9 8 9 9 9 10 9 9 10 9 10 8 8 8 5 4 3 2
11 15 17 18 21 22 19 17 19 19 18 16 15 14 15 14 13 13 15 16 16 16 15 15 14 12 11 10 8 7 6 6 7 7 6 7 7 7 7 7 8 8 8 8 9 10 10 10 9 9 11 11 11 12 13 13 14 14 13 12 10 9 9 7 6 5 7 7 6 7 6 5 7 8 8 8 9 11 10 9 9 7 4 2 2
11 16 18 18 22 23 19 18 18 18 17 16 16 16 17 17 16 15 16 17 17 16 15 14 12 11 10 9 8 7 8 8 9 9 8 8 8 8 8 9 9 8 8 8 9 10 11 11 10 10 11 14 13 12 14 16 16 15 13 14 14 12 10 8 7 5 4 4 3 4 4 2 5 8 7 7 7 9 10 9 8 6 3 2 1
12 16 19 19 21 21 19 18 18 18 17 16 16 16 17 17 17 17 17 17 17 16 15 13 12 10 9 9 8 9 9 9 9 10 9 9 8 8 9 9 9 8 8 9 10 10 11 11 11 11 12 14 13 14 16 13 11 11 10 11 12 12 12 11 9 7 5 3 2 1 1 1 2 5 6 7 5 6 7 7 6 5 3 1 1
12 16 19 19 19 19 18 17 17 18 17 16 16 15 15 14 14 15 16 16 15 13 12 12 11 11 10 10 10 9 9 9 10 11 10 7 7 9 9 9 9 9 9 10 10 10 11 11 11 12 13 14 12 15 15 8 9 13 10 6 4 5 8 10 11 9 6 5 4 2 2 5 6 6 7 7 6 6 6 5 4 4 3 1 1
13 16 18 19 19 18 16 16 16 17 16 16 15 14 13 12 12 14 14 14 13 12 11 10 11 11 11 11 10 9 9 9 10 11 9 7 7 9 9 9 9 9 9 10 10 11 11 11 11 12 14 15 14 16 14 7 11 14 7 3 2 2 3 5 8 9 8 8 7 5 4 6 7 7 7 8 7 6 5 4 4 4 3 1 2
14 15 17 18 19 19 16 16 16 16 16 16 14 14 15 14 14 14 13 12 13 14 12 12 11 12 12 11 11 10 8 9 10 10 8 7 8 9 9 9 9 9 10 10 10 10 10 10 11 12 14 15 15 17 16 8 11 12 5 4 3 1 3 5 6 7 9 9 8 9 9 7 7 8 8 10 10 8 7 7 7 6 5 4 5
13 13 16 18 19 20 17 16 17 17 17 17 15 16 17 16 17 17 15 14 15 15 15 15 14 13 13 12 11 10 8 9 9 10 9 8 9 9 9 9 9 9 9 10 10 9 9 9 10 12 14 14 14 17 17 11 12 12 5 4 2 1 7 8 4 3 7 9 10 12 12 11 11 12 12 12 11 10 9 10 12 11 9 8 8
13 13 16 20 20 20 19 17 19 19 19 19 17 17 18 18 19 19 17 16 16 15 15 15 15 14 13 12 11 10 9 10 10 10 11 10 10 9 9 9 8 9 8 9 9 8 9 8 8 11 12 14 14 16 17 13 14 13 6 4 2 1 10 10 5 4 4 6 11 15 13 13 14 14 13 13 11 11 12 12 12 11 10 9 8
14 13 16 23 21 20 22 20 20 20 20 19 18 18 18 18 19 19 17 16 17 16 16 15 14 14 13 12 12 12 11 11 11 12 12 11 10 9 9 8 8 8 7 8 9 8 8 8 9 10 11 14 14 14 16 14 15 14 8 5 3 3 9 10 11 11 6 3 8 12 14 16 16 14 13 13 13 13 13 12 11 10 10 10 9
14 14 18 25 22 21 23 20 21 22 21 20 19 18 16 15 17 18 18 17 17 17 16 16 15 14 14 14 14 14 13 12 11 11 10 8 8 7 7 6 6 6 5 6 8 8 8 9 10 11 12 14 14 13 15 15 17 16 9 4 5 8 10 10 14 16 10 5 4 6 11 15 15 13 13 12 13 13 12 11 12 13 14 14 15
14 15 19 24 23 22 22 20 22 23 21 20 20 19 16 15 17 19 20 19 18 18 16 15 15 15 16 16 14 14 12 11 10 9 8 7 7 7 6 6 5 5 5 6 7 7 8 9 10 11 11 12 13 13 13 14 16 15 10 7 10 13 12 10 14 17 12 8 6 6 10 11 10 11 12 11 11 12 12 13 15 16 17 18 19
15 19 21 23 23 22 21 21 22 22 21 19 18 18 16 15 17 19 20 21 20 20 18 17 17 17 18 16 14 13 13 12 11 10 9 8 8 7 6 6 5 5 5 6 7 7 7 8 9 10 11 11 11 11 11 12 14 14 11 10 12 15 12 10 16 19 15 11 8 8 10 11 9 9 10 11 12 13 14 15 17 18 19 20 20
Wind_Direction
151 152 154 154 153 150 150 146 143 141 140 138 135 133 132 132 133 133 134 134 134 135 137 139 139 139 138 136 135 132 129 127 127 128 127 126 125 124 123 122 122 121 120 117 115 114 113 113 111 110 109 108 109 105 100 95 93 90 88 84 83 85 86 85 88 92 96 98 99 98 90 82 78 82 86 87 88 88 90 90 89 88 87 86 85
150 151 153 154 155 152 150 146 143 141 139 137 134 132 132 132 134 135 136 135 135 136 137 138 139 138 138 136 135 132 128 128 129 128 126 126 125 124 123 120 119 119 118 118 117 116 117 116 114 113 113 112 109 104 101 98 92 90 87 83 81 87 90 90 93 96 101 101 97 97 91 82 79 81 84 86 88 88 88 88 87 86 86 87 86
146 149 152 154 156 154 151 146 143 141 139 136 133 132 131 132 134 136 137 137 137 137 138 138 138 137 137 136 133 130 129 129 128 126 126 125 124 123 121 118 118 118 118 119 118 117 117 116 115 115 113 112 109 105 104 100 94 94 90 82 77 83 92 96 100 104 111 107 97 98 91 83 80 80 83 85 86 86 87 87 86 86 86 86 85
145 148 150 153 155 154 151 147 145 143 140 136 134 132 132 134 134 136 138 140 139 138 138 137 137 135 134 134 132 131 131 129 127 126 126 125 124 120 118 119 120 120 120 121 119 119 117 116 115 114 113 112 109 106 107 104 98 98 93 85 77 79 90 101 108 112 114 109 104 100 86 81 81 80 81 83 85 84 85 85 85 85 83 82 81
146 147 149 152 153 153 150 149 147 145 141 137 135 133 134 135 135 136 136 139 141 141 139 136 135 133 131 132 132 132 131 128 127 127 128 127 125 119 118 122 123 123 123 124 122 121 119 117 116 115 116 113 110 108 109 108 104 103 98 89 80 78 86 99 111 117 118 114 111 101 88 86 81 77 81 82 84 85 84 84 83 83 82 81 79
145 147 150 152 152 152 150 150 149 146 141 137 136 134 136 136 137 136 134 134 136 139 138 135 132 131 131 130 130 130 127 125 127 129 129 127 125 123 123 124 124 125 124 125 124 123 121 120 118 118 116 113 113 111 111 112 111 109 105 96 87 82 83 94 105 114 122 119 115 109 101 96 83 75 85 85 83 85 85 84 83 82 82 81 80
145 147 151 153 152 152 152 151 150 146 142 138 137 135 136 136 136 135 134 134 133 134 135 134 132 131 131 130 130 128 127 127 131 133 129 125 124 123 124 123 123 123 124 126 126 124 123 123 121 119 117 116 116 113 112 113 114 110 105 101 95 90 86 94 103 112 124 122 118 117 110 103 95 84 90 92 85 85 84 83 82 80 79 78 78
145 148 153 153 151 153 154 152 150 147 143 140 138 136 137 137 135 134 134 136 135 133 134 135 133 134 134 134 134 133 133 133 136 133 126 125 124 123 124 123 122 124 127 128 127 126 124 124 122 121 121 119 117 114 115 114 114 113 112 110 109 106 95 99 107 114 125 124 119 119 114 110 107 90 88 98 95 92 89 83 82 77 74 73 74
145 150 155 152 151 154 154 153 151 148 145 142 139 138 138 138 136 134 134 136 137 136 136 136 135 137 137 138 138 137 135 134 136 131 127 127 126 126 127 126 126 127 129 130 128 126 126 126 123 123 123 121 119 116 115 112 111 115 115 115 119 122 110 108 113 116 122 124 119 119 116 109 104 94 92 103 107 102 91 82 81 79 77 75 74
146 152 154 152 152 155 156 155 152 150 147 145 143 140 140 140 139 137 137 137 138 138 138 138 139 139 138 140 139 137 136 135 135 132 131 130 130 132 131 130 128 127 130 131 129 128 128 127 125 125 126 124 122 117 113 109 107 108 105 109 123 128 120 116 117 115 117 122 122 120 115 109 104 100 99 102 101 97 90 84 85 86 85 82 82
149 153 154 152 153 156 157 156 154 152 150 149 146 142 141 141 141 140 140 140 141 142 140 139 141 139 139 141 139 138 138 138 137 136 136 136 137 136 131 128 125 124 129 132 132 131 129 129 129 129 128 125 122 118 114 109 105 101 99 108 119 122 118 117 118 111 112 121 123 121 117 113 107 100 100 99 94 93 93 91 89 88 87 84 86
152 154 152 152 155 157 157 157 156 154 153 152 149 145 144 143 144 143 142 142 144 145 141 139 140 140 139 140 141 142 143 143 141 140 141 141 142 138 130 127 126 125 128 132 135 136 135 134 132 130 127 125 124 120 116 110 104 99 102 110 113 116 114 111 112 108 110 119 120 117 113 106 102 100 100 95 95 97 93 91 89 88 89 87 87
153 153 151 153 157 158 159 159 157 157 156 154 151 147 145 144 145 145 143 141 142 144 141 138 139 140 140 141 143 147 147 147 144 143 144 145 145 140 131 130 131 130 131 131 133 137 137 136 131 129 128 127 125 120 115 107 101 100 108 114 112 113 112 107 105 106 112 118 118 115 110 106 105 103 99 93 94 97 92 89 87 86 89 90 90
151 152 152 156 157 158 160 159 158 159 158 155 152 149 146 144 143 143 142 141 141 143 141 139 141 142 144 143 146 150 150 149 145 141 141 143 144 140 134 134 135 134 134 130 129 134 137 136 134 132 129 128 125 120 114 107 102 105 115 120 116 110 110 109 105 105 112 118 116 114 115 115 111 103 100 97 95 96 93 89 87 87 87 86 89
150 153 154 155 154 157 159 158 159 161 159 156 154 152 148 144 143 143 142 141 142 143 142 141 141 142 145 145 148 152 150 147 143 139 138 140 143 139 134 136 137 135 133 128 128 136 141 139 136 133 130 128 125 121 113 107 106 111 123 127 121 111 107 109 107 107 113 116 115 115 116 112 108 105 106 104 100 98 95 93 91 89 86 86 89
151 154 154 152 152 156 157 158 161 161 161 160 158 153 148 145 143 144 142 143 145 146 146 145 143 142 144 145 149 151 148 145 141 139 139 140 143 137 135 137 138 138 133 128 131 139 143 142 138 135 131 127 125 122 114 107 108 115 127 132 126 117 110 108 107 109 113 116 116 116 118 119 120 118 114 111 107 104 99 96 95 91 90 90 91
151 153 151 151 153 156 157 159 160 161 162 161 158 152 149 147 145 146 144 145 148 150 149 148 147 144 145 147 148 148 146 145 142 141 141 142 143 136 135 139 140 140 136 131 134 138 144 145 142 138 132 126 124 122 116 111 111 116 126 135 134 125 118 111 106 108 113 116 115 116 122 129 127 120 115 115 112 107 102 98 99 100 97 95 92
150 150 150 152 154 158 161 159 159 161 161 158 156 153 151 150 147 145 144 147 152 153 150 147 147 145 146 148 148 147 146 146 144 143 142 139 138 135 135 139 140 140 137 134 133 133 141 147 145 141 135 127 123 123 121 120 119 121 127 136 140 136 128 119 110 108 114 115 116 117 123 127 124 123 124 122 117 111 108 106 105 104 100 96 91
146 147 149 154 157 160 162 159 160 160 159 158 158 157 154 153 148 143 145 151 154 151 147 144 144 144 145 148 149 148 146 147 146 143 139 134 132 133 135 137 138 138 139 140 138 134 138 145 147 144 139 131 124 125 126 125 126 126 130 139 146 146 139 131 117 111 114 115 118 123 125 125 125 128 130 127 122 118 118 115 108 102 98 96 93
144 147 152 157 161 163 162 162 162 160 161 160 160 160 158 154 148 145 152 158 155 147 143 142 142 141 140 141 143 144 144 147 144 139 132 129 131 131 130 133 137 140 145 147 146 144 143 145 147 144 139 135 129 128 129 129 131 130 133 144 152 153 149 143 127 118 118 118 120 123 124 122 123 129 132 129 125 123 122 117 114 109 102 99 97
145 152 157 162 164 166 164 164 164 162 164 164 163 161 158 155 149 151 157 159 153 146 144 142 140 136 134 136 138 139 139 139 136 132 130 129 131 128 126 132 137 141 145 146 149 154 152 146 142 139 138 139 136 131 130 132 135 133 136 148 157 158 155 150 138 129 126 124 122 119 119 123 133 138 133 129 127 124 117 114 117 112 108 108 103
151 158 162 166 167 168 167 165 166 166 166 166 165 161 160 158 155 157 155 153 151 150 149 145 142 138 138 140 138 135 133 131 130 131 133 130 127 125 128 133 132 133 138 140 146 155 150 139 133 132 135 142 142 136 133 137 139 134 138 151 159 160 159 157 148 139 134 131 126 119 116 122 136 137 131 131 128 123 117 117 116 110 111 112 107
156 161 165 169 169 169 169 167 166 168 168 166 166 164 164 164 163 160 152 153 155 156 155 150 147 144 143 143 137 134 131 128 127 128 127 123 121 122 125 126 125 126 132 136 134 135 134 128 124 121 124 137 146 142 138 141 142 134 134 149 158 160 161 161 156 147 143 138 128 124 118 118 129 133 131 127 120 120 119 118 113 106 104 106 108
159 162 164 169 172 171 170 169 169 171 171 168 169 168 168 169 169 163 157 159 160 159 158 154 151 147 146 143 137 134 129 125 124 124 123 122 120 121 123 125 125 123 127 130 122 118 119 120 116 110 108 120 142 146 144 145 145 138 132 143 153 159 162 164 162 155 150 143 130 131 124 122 133 139 131 112 116 128 129 124 115 109 102 100 105
157 159 161 171 178 176 172 173 175 176 174 172 172 171 171 173 171 168 164 163 162 160 161 159 155 152 149 143 139 136 132 128 125 125 126 125 123 125 128 127 125 123 125 124 118 114 115 116 112 106 100 100 123 143 149 150 148 144 136 139 149 157 163 167 167 162 156 147 135 138 134 128 134 138 127 100 110 129 133 126 118 112 105 98 97
153 159 166 177 187 184 177 177 180 180 177 175 175 172 173 176 173 171 169 164 164 164 165 164 161 158 154 148 144 141 136 130 123 125 129 129 129 129 127 125 124 122 122 118 114 114 116 117 110 106 101 98 109 129 146 154 153 149 142 144 151 158 166 171 173 169 162 152 141 146 143 134 135 129 122 99 96 107 106 109 112 105 97 93 92
160 165 175 184 191 189 183 181 182 182 181 178 176 174 175 178 175 173 171 167 167 168 169 168 166 163 159 154 150 144 139 133 129 130 133 135 135 132 128 125 125 121 118 117 114 118 121 116 111 109 103 99 104 114 132 147 154 152 146 149 155 161 169 174 178 175 168 159 150 155 146 141 148 130 116 103 86 78 81 95 102 101 96 94 94
170 171 180 188 192 193 189 185 186 184 183 181 178 178 179 179 177 175 173 171 170 170 170 170 169 166 161 157 153 148 142 139 138 138 142 145 140 136 135 131 128 123 120 122 121 128 128 118 114 114 109 104 103 107 119 133 147 152 149 152 158 163 169 175 180 178 175 168 157 162 153 152 163 129 109 107 86 70 71 81 87 95 99 99 99
177 179 186 194 195 196 193 190 189 187 187 184 182 185 182 180 178 175 173 171 172 170 171 172 170 168 162 158 158 154 148 146 144 144 147 148 143 139 139 136 131 123 119 123 123 127 128 123 123 126 123 116 110 110 114 121 132 143 150 155 158 163 169 175 181 181 181 174 163 165 159 161 172 133 112 112 101 77 67 74 80 86 91 94 98
188 189 194 200 199 198 197 195 193 190 190 187 187 188 183 180 179 175 173 172 173 171 171 174 173 170 164 159 162 161 157 154 149 149 149 147 146 145 143 140 134 124 118 121 116 110 117 123 134 142 140 133 123 117 118 122 124 133 149 157 160 165 170 174 180 184 184 177 167 165 163 169 177 149 123 113 109 95 77 77 78 79 83 88 94
198 199 202 205 202 198 197 198 197 193 192 189 189 188 183 182 178 174 175 173 172 173 175 176 172 169 165 163 164 163 162 161 156 155 153 151 151 151 149 142 134 125 119 118 114 105 106 114 132 142 143 143 135 124 127 134 133 138 150 159 163 166 171 176 181 187 187 178 170 167 166 171 179 166 142 119 109 121 119 95 87 80 83 88 88
194 203 209 205 199 197 195 196 197 195 194 191 189 185 183 181 175 174 176 172 173 177 179 176 168 166 168 166 164 162 165 165 163 162 157 158 157 153 153 144 134 130 127 127 123 115 107 111 128 134 138 146 142 134 136 145 148 150 155 163 166 168 175 181 186 190 188 180 172 169 169 170 178 180 164 120 100 123 146 105 102 94 93 98 89
193 203 206 198 193 193 192 195 197 196 195 192 188 184 182 178 172 175 173 168 175 178 178 176 170 168 169 168 165 165 169 168 167 166 160 162 160 150 150 146 143 148 149 149 142 128 118 121 134 138 140 147 145 140 144 155 159 159 160 165 169 174 182 186 191 192 188 183 176 171 171 172 178 182 179 149 99 123 152 107 116 116 109 107 96
206 204 191 184 186 188 190 195 194 194 194 191 187 183 180 175 170 173 169 167 175 177 178 179 172 169 172 172 169 169 172 173 170 167 163 168 169 151 146 146 150 167 169 164 160 147 135 135 145 149 148 148 149 149 157 164 163 163 164 169 175 180 187 190 192 192 190 185 178 174 177 180 182 178 178 171 117 118 138 97 114 124 120 116 104
208 186 176 177 181 185 189 192 191 192 192 189 186 181 179 173 168 170 168 171 175 176 179 178 172 172 178 177 173 175 178 180 177 172 171 176 180 164 151 154 159 168 166 165 171 166 154 148 152 155 153 153 156 157 163 164 160 163 166 171 179 182 188 191 192 192 191 184 178 183 187 185 182 174 169 173 144 121 119 94 93 100 109 110 92
194 180 173 170 173 183 190 190 189 190 189 187 184 180 179 173 169 171 173 177 177 178 178 176 176 179 183 182 179 181 184 188 185 180 184 187 183 170 156 163 168 160 154 160 167 167 164 158 156 159 158 158 163 162 159 156 149 150 157 166 175 183 188 191 195 194 190 185 187 196 194 182 179 176 167 171 161 134 125 118 107 84 101 108 79
195 184 172 166 172 182 188 189 187 187 186 184 181 179 176 170 170 171 173 176 175 176 176 177 182 184 186 189 189 191 193 195 191 186 191 192 181 171 166 165 164 153 148 149 151 157 165 164 157 160 166 165 166 161 149 144 138 133 135 142 151 170 183 191 199 199 193 193 198 201 197 185 176 172 171 175 167 156 150 133 126 113 117 131 124
198 186 176 171 176 182 186 187 185 185 185 181 178 176 170 165 165 162 163 167 170 174 178 182 185 185 188 193 196 197 196 192 190 190 189 188 188 185 177 167 163 156 152 149 148 155 164 167 159 159 172 175 170 161 146 137 129 121 113 108 113 128 149 176 191 198 198 198 201 202 205 196 178 168 176 182 172 170 168 144 141 152 152 158 155
200 185 176 174 180 184 184 181 180 182 182 178 176 170 161 158 153 149 156 164 170 176 181 184 185 186 187 190 195 196 197 200 201 200 197 194 195 194 181 169 166 160 157 155 155 161 162 163 161 157 165 173 174 161 146 134 120 110 102 95 96 101 104 117 154 180 185 182 185 198 213 207 185 174 179 185 181 178 176 163 164 172 166 154 150
196 182 174 175 181 184 183 176 177 180 179 174 169 159 150 149 147 146 156 166 173 177 182 185 185 188 189 189 194 200 210 214 205 200 198 193 192 194 183 171 170 165 163 159 156 163 163 162 164 161 159 161 165 156 147 138 116 101 93 88 84 88 95 103 114 145 166 161 167 192 216 214 190 181 179 189 188 175 174 176 176 181 181 163 157
185 180 176 176 180 185 180 170 173 180 178 172 166 157 149 146 147 152 160 167 174 177 179 182 184 186 190 193 198 206 212 208 200 195 190 187 190 191 182 176 173 167 164 156 153 163 167 167 166 164 163 158 157 156 149 140 120 102 92 83 77 74 81 93 96 95 120 139 157 199 224 226 183 177 174 190 182 155 164 171 159 159 174 196 236
180 179 180 178 180 184 177 164 169 178 178 175 168 160 158 156 156 160 166 168 173 177 174 174 176 181 189 197 201 204 204 201 196 190 184 184 190 188 181 181 176 164 159 154 157 169 172 173 170 164 164 162 163 164 154 141 124 119 111 92 77 72 72 77 84 76 71 88 86 158 255 7 135 152 155 181 166 112 128 147 131 129 139 163 248
180 180 182 181 182 183 175 163 166 175 178 177 172 166 167 165 160 161 168 169 170 173 167 165 171 179 187 192 196 195 192 191 189 184 182 184 190 186 180 182 178 166 162 160 165 177 177 177 177 170 165 162 167 170 163 149 139 134 120 105 82 73 71 67 73 76 80 92 80 68 44 47 66 86 106 139 134 92 95 113 108 109 104 80 47
180 181 181 182 184 185 176 164 166 177 179 175 174 170 162 158 155 159 168 169 166 164 161 163 172 179 182 181 181 179 176 178 182 182 182 181 184 182 178 179 176 171 171 170 173 182 184 182 180 178 172 166 169 177 176 163 155 149 123 91 83 81 95 75 71 71 81 97 87 87 94 79 79 84 87 99 101 87 81 89 84 90 95 66 74
181 183 183 181 181 182 177 166 167 176 177 173 171 162 153 153 155 156 161 159 157 160 160 163 170 174 173 169 166 166 167 171 178 183 183 180 177 176 178 177 174 175 177 179 180 184 191 190 185 187 185 179 177 183 189 186 172 168 141 118 102 69 156 125 94 69 71 86 87 94 100 92 94 95 87 84 86 78 68 78 85 89 100 95 87
180 183 186 180 175 178 178 170 168 174 174 170 167 161 158 159 159 156 156 154 154 162 166 164 165 166 164 160 160 162 161 165 173 178 176 171 167 168 173 173 171 174 176 181 183 188 195 196 194 196 194 193 189 188 195 201 190 185 164 141 98 57 162 144 117 75 78 88 92 95 94 90 93 95 96 98 93 84 77 84 91 92 92 85 82
180 185 181 172 170 175 180 179 174 175 171 166 169 169 164 163 164 164 167 167 162 164 170 166 161 159 157 157 161 159 155 158 163 165 163 160 160 160 162 164 166 170 175 179 181 188 195 198 202 201 199 202 200 195 199 205 197 198 209 220 310 74 159 155 148 136 100 86 89 94 98 100 101 99 101 104 98 95 93 92 94 96 95 87 85
181 190 170 163 171 180 186 186 174 168 165 166 173 171 165 165 166 168 173 176 170 166 167 165 160 159 158 156 156 153 150 154 156 157 157 158 160 160 162 167 167 168 174 181 180 182 192 201 206 208 209 210 213 210 209 212 205 203 209 229 259 160 155 158 151 137 118 95 91 93 98 99 99 98 96 96 95 97 97 97 102 104 105 104 104
183 190 163 160 178 188 188 181 166 162 162 168 173 167 165 168 167 167 168 168 167 164 165 164 162 161 156 153 153 153 153 155 156 158 159 160 161 162 167 175 175 173 176 184 184 183 192 203 208 212 214 215 222 223 219 218 213 209 203 179 161 147 138 138 141 129 114 117 111 99 101 96 91 88 92 96 96 98 100 103 106 107 108 109 112
186 183 160 163 182 187 181 169 158 159 163 173 175 164 164 166 165 166 162 159 160 160 162 162 162 160 155 152 154 156 157 159 162 165 165 165 166 165 171 180 186 186 186 194 198 197 201 205 208 214 217 217 222 223 224 223 216 215 214 192 165 149 135 127 134 129 116 107 105 110 108 101 89 80 86 96 100 102 105 105 107 108 110 110 109
183 172 162 172 185 180 171 163 156 158 166 177 171 157 159 161 161 165 162 159 160 159 162 162 161 161 157 155 158 160 164 169 172 172 171 172 171 170 174 182 189 188 189 204 212 209 204 200 201 208 212 215 218 220 222 218 212 214 221 219 190 168 158 153 150 143 134 123 114 109 105 103 97 86 91 99 104 108 110 112 113 114 113 112 110